SCP
0 0 0 0 0 0 0 0 0 0 4 5 4 3 2 2 2 2 1 1 1 0 0 0 0 0 0 0 0 0 0 0 0 1 1 0 0 0 0 0 0 0 0
0 0 0 0 0 0 0 0 0 0 2 4 5 4 4 2 2 2 1 1 1 0 1 0 0 0 0 0 0 0 0 0 0 1 0 0 0 0 0 0 0 0 0
0 0 0 0 0 0 0 0 0 0 0 4 6 4 3 2 2 1 1 1 1 0 0 0 0 0 0 0 0 0 0 0 0 0 0 0 0 0 0 0 0 0 0
0 0 0 0 0 0 0 0 0 0 0 2 5 4 3 3 2 2 1 1 1 1 0 0 0 0 0 0 0 0 0 0 0 0 0 0 0 0 0 0 0 0 0
0 0 0 0 0 0 0 0 0 0 1 1 3 4 3 2 1 2 1 1 1 1 1 0 0 0 0 0 0 0 0 0 0 0 0 0 0 0 0 0 0 0 0
0 0 0 0 0 0 0 0 0 1 1 1 3 4 2 2 2 2 1 1 1 1 0 1 0 0 0 0 0 0 0 0 0 0 0 0 0 0 0 0 0 0 0
-0 0 0 0 0 0 0 0 0 0 1 1 2 3 3 2 2 2 1 1 1 1 1 1 1 0 0 0 1 1 0 0 0 0 0 0 0 0 0 0 0 0 0
-0 0 0 0 0 0 0 0 0 0 0 1 1 1 3 3 3 2 1 1 1 1 1 0 0 0 0 0 1 1 0 0 0 0 0 0 0 0 0 0 0 0 0
-0 -0 0 0 0 0 0 0 0 0 -0 0 1 2 1 3 2 2 1 0 1 1 1 0 0 0 0 0 0 0 0 0 0 0 0 0 0 0 0 0 0 0 0
0 -0 -0 0 -0 0 0 0 0 0 0 1 1 1 2 2 1 1 1 0 0 1 1 0 0 0 1 0 0 0 0 0 0 0 0 0 0 0 0 0 0 0 0
-0 -0 -0 -0 -0 -0 0 0 0 0 0 0 0 2 2 1 1 1 1 0 0 0 0 1 1 0 0 0 0 0 0 0 0 0 0 0 0 0 0 0 0 0 0
-0 -0 -0 -0 -0 -0 0 0 0 0 -0 0 0 1 1 0 0 0 1 0 0 0 0 0 0 0 0 0 0 0 0 0 0 0 0 0 0 0 0 0 0 0 0
-0 -0 -0 -0 0 0 0 0 0 0 0 0 0 0 1 0 0 0 0 0 0 0 0 0 0 0 0 0 0 0 0 0 0 0 0 0 0 0 0 0 0 0 0
-0 -0 -0 0 0 0 0 0 0 0 0 0 0 0 0 -0 0 1 0 0 0 0 0 0 0 0 0 0 0 0 -0 -0 0 0 0 0 0 0 0 0 0 0 0
0 0 0 0 0 0 0 0 0 0 0 0 0 0 0 0 0 0 0 0 0 0 0 0 0 0 0 0 0 0 0 0 0 0 0 0 0 0 0 0 0 0 -0
0 0 0 0 0 0 0 0 0 0 0 0 0 0 0 0 1 0 0 0 0 0 0 0 0 0 0 0 0 0 0 0 0 0 0 0 0 0 0 0 -0 -0 -0
0 0 0 0 0 0 0 0 0 0 0 0 0 0 0 0 0 0 0 0 0 0 0 0 0 0 0 0 0 0 0 0 0 0 0 0 0 0 0 -0 -0 -0 -0
0 0 0 0 0 0 0 -0 0 0 0 0 0 0 0 0 0 0 0 0 0 0 0 0 0 0 0 -0 -0 0 0 0 0 0 0 0 0 0 0 -0 -0 -0 -0
0 0 0 0 0 0 0 0 0 0 0 0 0 0 0 0 0 0 0 0 0 0 0 0 0 0 0 0 0 0 0 0 -0 -0 0 0 0 0 -0 -0 -0 -0 -0
0 0 0 0 0 0 0 0 0 0 0 0 0 0 0 0 0 0 0 0 0 0 0 0 0 0 0 0 0 0 0 0 0 0 -0 0 0 0 0 -0 -0 -0 0
0 0 0 0 0 0 0 0 0 0 0 0 0 0 0 0 0 0 0 0 0 0 0 0 0 0 0 0 0 0 0 0 0 0 0 0 0 0 0 -0 -0 0 0
0 0 0 0 0 0 0 0 0 0 0 0 0 0 0 0 0 0 0 0 0 0 0 0 0 0 0 0 0 0 0 0 0 0 0 0 0 0 0 0 -0 -0 0
0 0 0 0 -0 0 0 0 0 0 0 0 0 0 0 0 0 0 0 0 0 0 0 0 0 0 0 0 0 0 0 0 0 0 0 0 0 0 0 -0 -0 -0 -0
0 0 0 0 0 0 0 0 0 0 0 0 0 0 0 0 0 0 0 0 0 0 0 0 0 0 0 0 0 0 0 0 0 0 0 0 0 0 0 -0 -0 -0 -0
0 0 0 0 0 0 0 0 0 0 0 0 0 0 0 0 0 0 0 0 0 0 0 0 0 0 0 0 0 0 0 0 0 0 0 0 0 0 0 0 -0 -0 0
0 0 -0 -0 0 0 0 0 0 0 0 0 0 0 0 0 0 0 0 0 0 0 0 0 0 0 0 0 0 0 0 0 0 0 0 0 0 0 0 0 -0 -0 0
Wind_Speed_500mb
67 60 62 69 75 73 69 82 72 68 66 70 62 59 62 67 73 76 82 74 69 65 66 79 66 64 60 51 54 49 48 40 36 24 30 29 18 13 9 8 9 10 13
55 52 51 50 64 68 79 76 80 68 65 74 72 66 61 66 67 79 71 90 86 79 67 83 70 67 72 64 63 63 55 46 42 33 42 31 23 21 18 12 13 13 15
46 47 41 53 66 61 72 68 85 75 71 67 69 71 64 64 61 75 88 85 77 89 82 77 82 74 77 73 71 65 53 56 49 44 39 21 14 31 19 12 10 12 14
63 55 51 37 39 32 51 71 75 80 78 73 78 79 72 70 66 73 73 94 82 86 90 91 80 84 80 77 75 66 57 59 56 51 52 41 25 19 18 19 13 8 10
62 67 50 49 48 42 35 59 71 78 83 74 79 75 77 65 57 65 75 78 94 81 95 97 87 90 86 79 75 70 65 62 62 58 48 36 30 25 22 30 30 22 17
55 61 53 43 48 46 36 30 62 82 81 74 74 77 75 61 61 70 70 74 72 95 83 93 98 95 95 85 79 72 69 66 58 57 54 44 41 34 27 26 40 37 29
51 56 59 49 47 48 36 38 26 62 73 71 67 73 71 65 66 68 64 65 70 79 93 90 100 86 75 75 75 72 71 65 63 56 50 44 37 27 24 32 48 47 41
48 56 55 53 56 57 49 31 38 35 71 68 65 70 64 64 65 61 57 56 58 70 80 75 61 67 64 70 75 67 69 66 61 55 46 46 39 29 27 34 44 49 35
56 58 58 59 61 53 49 43 39 55 34 73 76 68 68 63 55 49 49 52 47 53 59 74 75 97 80 78 83 75 70 64 57 55 53 46 39 28 29 29 35 38 35
54 63 66 68 63 55 49 37 41 46 38 44 77 79 67 42 38 43 44 42 37 46 52 62 67 71 87 90 88 67 63 62 56 51 51 44 33 26 23 27 34 35 34
58 67 77 79 84 74 55 46 35 43 29 29 51 40 35 37 36 36 30 33 36 37 43 50 57 58 76 101 76 72 45 49 50 47 44 36 28 26 24 26 32 35 27
70 82 92 94 80 77 61 49 36 30 32 36 37 39 32 36 35 33 28 29 29 29 32 30 41 39 45 58 68 33 44 34 28 40 40 37 32 29 27 28 30 27 18
70 76 79 83 84 67 56 46 33 29 28 33 15 25 38 54 35 39 31 28 25 32 26 26 25 27 36 49 52 65 58 48 33 45 38 37 36 36 33 27 26 22 21
73 77 70 65 69 56 55 53 37 22 18 26 25 13 40 60 59 39 33 27 23 31 38 34 36 36 46 50 56 71 66 51 53 43 38 40 39 38 33 27 28 25 20
72 59 56 56 53 60 64 57 42 26 23 30 21 18 22 38 46 43 40 29 22 32 38 45 48 57 61 55 67 68 67 63 61 56 52 49 43 32 23 29 30 21 20
78 66 56 54 54 52 66 56 54 38 22 26 28 24 26 18 41 46 43 29 29 40 43 44 45 61 72 77 68 69 70 70 69 69 63 55 37 43 36 35 31 25 21
59 66 65 62 62 61 57 65 62 47 37 23 26 35 32 19 27 42 46 36 33 43 60 52 64 64 49 58 75 83 81 70 75 69 65 50 48 42 42 38 37 36 31
73 79 80 72 64 58 59 60 65 54 44 28 16 28 26 18 30 43 42 32 34 43 57 69 65 67 68 62 66 63 76 77 67 67 57 46 54 48 44 46 46 44 45
88 83 76 64 59 57 54 60 59 67 49 36 13 25 23 17 28 37 34 23 53 60 60 61 64 64 70 70 71 68 78 84 73 57 58 59 56 51 45 44 47 49 50
83 79 69 67 63 60 52 61 63 64 59 41 16 26 20 22 35 50 54 50 56 56 56 57 57 53 59 69 68 83 94 85 70 68 64 59 59 49 41 41 43 49 48
85 73 72 67 52 51 54 60 64 60 71 44 17 31 26 25 42 57 46 60 64 66 61 59 57 58 65 74 82 86 84 79 83 78 70 64 56 52 45 39 41 47 44
81 74 77 56 48 61 50 56 60 56 69 46 23 40 35 27 39 47 55 64 71 69 64 62 65 68 73 76 81 76 72 79 79 79 73 71 64 58 49 44 43 46 40
74 69 54 44 51 28 40 48 55 45 68 50 36 41 39 36 40 45 71 76 75 74 70 71 77 83 84 83 76 65 71 74 75 79 78 73 64 59 50 44 44 40 38
75 63 49 35 27 20 35 46 45 49 57 45 52 45 45 50 55 58 74 79 77 77 76 78 82 84 81 74 69 70 71 72 76 75 79 71 64 54 52 47 44 38 37
67 55 39 22 17 22 32 48 50 50 58 46 58 53 46 50 64 62 69 73 70 69 77 80 79 86 78 75 78 76 81 82 82 86 82 73 63 56 52 50 46 38 38
55 45 24 16 13 28 34 51 41 54 56 64 62 61 59 64 66 66 72 66 63 64 70 70 79 81 81 81 77 77 79 87 89 82 78 70 61 59 57 53 48 42 34
Wind_Direction_500mb
313 305 294 277 272 266 259 247 241 237 235 226 226 230 232 238 236 237 234 243 237 226 226 219 220 221 217 218 211 199 209 228 204 210 180 187 182 206 215 233 270 251 233
324 311 287 291 274 270 258 250 237 234 227 231 232 233 249 253 241 241 233 234 236 233 229 219 217 217 218 218 212 217 224 212 211 210 196 171 173 185 193 232 259 251 245
357 348 303 304 289 266 258 248 237 234 228 232 237 231 239 246 245 238 239 233 234 233 228 224 220 216 213 217 218 222 216 202 206 213 207 177 192 187 179 205 220 234 261
19 12 20 4 353 328 276 245 238 235 235 235 236 232 233 243 252 250 245 238 236 232 225 227 224 219 216 219 222 222 214 203 206 206 216 226 234 179 173 184 179 217 235
21 13 10 17 16 344 296 263 246 241 237 235 233 235 234 240 259 261 248 243 237 235 228 227 224 221 215 219 221 220 214 211 211 213 208 216 225 206 190 180 167 165 170
15 10 7 1 12 14 351 299 259 248 236 228 227 237 235 239 259 262 248 242 247 238 235 224 224 223 215 216 219 221 217 219 218 216 220 225 221 217 211 183 173 176 166
20 17 18 17 10 356 6 20 341 255 229 224 224 229 235 245 260 258 247 242 246 250 241 234 226 228 214 219 220 221 217 216 219 215 213 216 222 217 205 185 174 178 163
26 12 9 359 2 1 336 347 358 306 243 222 228 228 239 250 256 252 252 254 253 246 248 242 216 221 230 221 225 225 216 218 217 207 206 205 214 215 207 196 184 167 168
4 3 354 348 349 350 344 321 326 338 266 238 227 233 237 244 251 249 258 256 251 244 252 246 236 236 231 220 222 213 207 210 209 208 208 207 211 215 213 200 207 207 168
348 345 344 339 327 332 330 332 319 302 325 264 245 232 234 246 255 256 261 255 243 236 239 235 214 224 225 218 210 206 213 207 200 203 205 205 212 205 193 186 195 209 216
339 334 332 327 323 307 317 322 314 301 296 300 247 222 230 248 256 259 258 255 244 233 236 231 240 234 208 220 205 185 204 205 194 191 198 202 199 184 177 172 175 186 194
329 326 317 312 311 300 303 307 309 299 297 277 243 213 217 246 240 251 249 240 236 227 229 236 235 219 146 146 151 170 175 193 213 198 198 187 172 166 160 160 152 155 152
315 307 303 300 299 293 290 291 296 278 280 290 253 236 231 241 244 242 240 225 225 219 214 212 213 217 199 203 206 190 197 196 216 199 192 174 169 154 152 147 145 136 128
305 303 300 291 288 282 277 278 291 307 273 282 291 249 203 213 223 226 230 222 202 205 204 208 205 192 176 167 171 177 180 187 203 184 178 162 155 145 156 156 131 132 132
309 309 306 299 289 286 277 267 275 279 296 255 266 249 201 228 217 213 230 223 212 206 204 195 183 183 189 192 183 178 183 184 173 167 165 154 153 158 153 133 129 133 125
306 309 306 301 299 290 276 269 259 269 284 269 254 276 282 262 216 207 214 213 216 183 190 186 187 182 179 169 178 183 178 171 167 166 158 158 168 139 134 133 123 107 106
297 301 300 294 288 288 281 270 257 260 265 292 238 266 280 270 210 205 207 205 200 180 179 186 173 166 179 192 184 178 169 170 165 163 160 160 143 143 143 137 130 116 100
298 297 297 295 289 285 273 268 255 248 247 257 244 246 267 270 208 212 200 195 177 169 161 158 156 161 160 163 165 169 166 166 165 167 162 154 147 147 143 136 122 109 93
296 297 300 302 300 288 270 260 251 237 241 239 243 232 256 258 208 199 183 207 178 173 173 176 171 172 171 178 174 172 163 160 160 155 147 147 141 139 140 132 123 113 98
300 301 308 301 296 288 272 253 242 232 230 221 219 215 234 232 189 175 172 207 197 184 181 177 181 184 174 177 180 167 163 156 148 146 146 147 136 134 132 128 122 111 101
311 313 305 295 285 287 271 244 233 229 218 206 210 206 218 204 189 177 195 188 183 176 175 178 174 172 169 165 166 167 163 160 152 150 150 143 139 133 129 123 115 109 106
316 319 306 301 286 278 255 235 222 218 209 199 196 205 211 193 196 191 185 189 179 173 172 169 161 163 163 167 170 169 169 160 155 151 144 139 138 133 128 121 111 111 110
320 325 319 299 302 258 231 219 205 200 193 194 193 199 192 182 194 189 177 179 172 168 167 167 165 164 167 172 175 178 168 159 155 145 138 138 137 134 127 118 117 125 114
319 325 304 287 291 234 207 204 191 184 186 187 183 194 177 175 179 180 180 176 175 168 168 170 169 169 171 174 170 160 162 158 148 145 142 143 139 136 130 127 125 127 114
322 320 311 266 276 210 200 186 176 178 179 178 182 184 179 174 170 174 178 176 175 175 173 177 178 173 167 162 155 159 163 160 153 148 145 144 141 138 136 135 133 131 122
324 327 328 246 244 182 181 169 170 172 174 176 176 169 172 170 173 173 164 169 175 180 183 182 179 164 152 148 152 164 163 156 156 151 148 143 144 143 143 142 140 139 130
Wind_Speed_850mb
67 60 62 69 75 73 69 82 72 68 66 70 62 59 62 67 73 76 82 74 69 65 66 79 66 64 60 51 54 49 48 40 36 24 30 29 18 13 9 8 9 10 13
55 52 51 50 64 68 79 76 80 68 65 74 72 66 61 66 67 79 71 90 86 79 67 83 70 67 72 64 63 63 55 46 42 33 42 31 23 21 18 12 13 13 15
46 47 41 53 66 61 72 68 85 75 71 67 69 71 64 64 61 75 88 85 77 89 82 77 82 74 77 73 71 65 53 56 49 44 39 21 14 31 19 12 10 12 14
63 55 51 37 39 32 51 71 75 80 78 73 78 79 72 70 66 73 73 94 82 86 90 91 80 84 80 77 75 66 57 59 56 51 52 41 25 19 18 19 13 8 10
62 67 50 49 48 42 35 59 71 78 83 74 79 75 77 65 57 65 75 78 94 81 95 97 87 90 86 79 75 70 65 62 62 58 48 36 30 25 22 30 30 22 17
55 61 53 43 48 46 36 30 62 82 81 74 74 77 75 61 61 70 70 74 72 95 83 93 98 95 95 85 79 72 69 66 58 57 54 44 41 34 27 26 40 37 29
51 56 59 49 47 48 36 38 26 62 73 71 67 73 71 65 66 68 64 65 70 79 93 90 100 86 75 75 75 72 71 65 63 56 50 44 37 27 24 32 48 47 41
48 56 55 53 56 57 49 31 38 35 71 68 65 70 64 64 65 61 57 56 58 70 80 75 61 67 64 70 75 67 69 66 61 55 46 46 39 29 27 34 44 49 35
56 58 58 59 61 53 49 43 39 55 34 73 76 68 68 63 55 49 49 52 47 53 59 74 75 97 80 78 83 75 70 64 57 55 53 46 39 28 29 29 35 38 35
54 63 66 68 63 55 49 37 41 46 38 44 77 79 67 42 38 43 44 42 37 46 52 62 67 71 87 90 88 67 63 62 56 51 51 44 33 26 23 27 34 35 34
58 67 77 79 84 74 55 46 35 43 29 29 51 40 35 37 36 36 30 33 36 37 43 50 57 58 76 101 76 72 45 49 50 47 44 36 28 26 24 26 32 35 27
70 82 92 94 80 77 61 49 36 30 32 36 37 39 32 36 35 33 28 29 29 29 32 30 41 39 45 58 68 33 44 34 28 40 40 37 32 29 27 28 30 27 18
70 76 79 83 84 67 56 46 33 29 28 33 15 25 38 54 35 39 31 28 25 32 26 26 25 27 36 49 52 65 58 48 33 45 38 37 36 36 33 27 26 22 21
73 77 70 65 69 56 55 53 37 22 18 26 25 13 40 60 59 39 33 27 23 31 38 34 36 36 46 50 56 71 66 51 53 43 38 40 39 38 33 27 28 25 20
72 59 56 56 53 60 64 57 42 26 23 30 21 18 22 38 46 43 40 29 22 32 38 45 48 57 61 55 67 68 67 63 61 56 52 49 43 32 23 29 30 21 20
78 66 56 54 54 52 66 56 54 38 22 26 28 24 26 18 41 46 43 29 29 40 43 44 45 61 72 77 68 69 70 70 69 69 63 55 37 43 36 35 31 25 21
59 66 65 62 62 61 57 65 62 47 37 23 26 35 32 19 27 42 46 36 33 43 60 52 64 64 49 58 75 83 81 70 75 69 65 50 48 42 42 38 37 36 31
73 79 80 72 64 58 59 60 65 54 44 28 16 28 26 18 30 43 42 32 34 43 57 69 65 67 68 62 66 63 76 77 67 67 57 46 54 48 44 46 46 44 45
88 83 76 64 59 57 54 60 59 67 49 36 13 25 23 17 28 37 34 23 53 60 60 61 64 64 70 70 71 68 78 84 73 57 58 59 56 51 45 44 47 49 50
83 79 69 67 63 60 52 61 63 64 59 41 16 26 20 22 35 50 54 50 56 56 56 57 57 53 59 69 68 83 94 85 70 68 64 59 59 49 41 41 43 49 48
85 73 72 67 52 51 54 60 64 60 71 44 17 31 26 25 42 57 46 60 64 66 61 59 57 58 65 74 82 86 84 79 83 78 70 64 56 52 45 39 41 47 44
81 74 77 56 48 61 50 56 60 56 69 46 23 40 35 27 39 47 55 64 71 69 64 62 65 68 73 76 81 76 72 79 79 79 73 71 64 58 49 44 43 46 40
74 69 54 44 51 28 40 48 55 45 68 50 36 41 39 36 40 45 71 76 75 74 70 71 77 83 84 83 76 65 71 74 75 79 78 73 64 59 50 44 44 40 38
75 63 49 35 27 20 35 46 45 49 57 45 52 45 45 50 55 58 74 79 77 77 76 78 82 84 81 74 69 70 71 72 76 75 79 71 64 54 52 47 44 38 37
67 55 39 22 17 22 32 48 50 50 58 46 58 53 46 50 64 62 69 73 70 69 77 80 79 86 78 75 78 76 81 82 82 86 82 73 63 56 52 50 46 38 38
55 45 24 16 13 28 34 51 41 54 56 64 62 61 59 64 66 66 72 66 63 64 70 70 79 81 81 81 77 77 79 87 89 82 78 70 61 59 57 53 48 42 34
Wind_Direction_850mb
313 305 294 277 272 266 259 247 241 237 235 226 226 230 232 238 236 237 234 243 237 226 226 219 220 221 217 218 211 199 209 228 204 210 180 187 182 206 215 233 270 251 233
324 311 287 291 274 270 258 250 237 234 227 231 232 233 249 253 241 241 233 234 236 233 229 219 217 217 218 218 212 217 224 212 211 210 196 171 173 185 193 232 259 251 245
357 348 303 304 289 266 258 248 237 234 228 232 237 231 239 246 245 238 239 233 234 233 228 224 220 216 213 217 218 222 216 202 206 213 207 177 192 187 179 205 220 234 261
19 12 20 4 353 328 276 245 238 235 235 235 236 232 233 243 252 250 245 238 236 232 225 227 224 219 216 219 222 222 214 203 206 206 216 226 234 179 173 184 179 217 235
21 13 10 17 16 344 296 263 246 241 237 235 233 235 234 240 259 261 248 243 237 235 228 227 224 221 215 219 221 220 214 211 211 213 208 216 225 206 190 180 167 165 170
15 10 7 1 12 14 351 299 259 248 236 228 227 237 235 239 259 262 248 242 247 238 235 224 224 223 215 216 219 221 217 219 218 216 220 225 221 217 211 183 173 176 166
20 17 18 17 10 356 6 20 341 255 229 224 224 229 235 245 260 258 247 242 246 250 241 234 226 228 214 219 220 221 217 216 219 215 213 216 222 217 205 185 174 178 163
26 12 9 359 2 1 336 347 358 306 243 222 228 228 239 250 256 252 252 254 253 246 248 242 216 221 230 221 225 225 216 218 217 207 206 205 214 215 207 196 184 167 168
4 3 354 348 349 350 344 321 326 338 266 238 227 233 237 244 251 249 258 256 251 244 252 246 236 236 231 220 222 213 207 210 209 208 208 207 211 215 213 200 207 207 168
348 345 344 339 327 332 330 332 319 302 325 264 245 232 234 246 255 256 261 255 243 236 239 235 214 224 225 218 210 206 213 207 200 203 205 205 212 205 193 186 195 209 216
339 334 332 327 323 307 317 322 314 301 296 300 247 222 230 248 256 259 258 255 244 233 236 231 240 234 208 220 205 185 204 205 194 191 198 202 199 184 177 172 175 186 194
329 326 317 312 311 300 303 307 309 299 297 277 243 213 217 246 240 251 249 240 236 227 229 236 235 219 146 146 151 170 175 193 213 198 198 187 172 166 160 160 152 155 152
315 307 303 300 299 293 290 291 296 278 280 290 253 236 231 241 244 242 240 225 225 219 214 212 213 217 199 203 206 190 197 196 216 199 192 174 169 154 152 147 145 136 128
305 303 300 291 288 282 277 278 291 307 273 282 291 249 203 213 223 226 230 222 202 205 204 208 205 192 176 167 171 177 180 187 203 184 178 162 155 145 156 156 131 132 132
309 309 306 299 289 286 277 267 275 279 296 255 266 249 201 228 217 213 230 223 212 206 204 195 183 183 189 192 183 178 183 184 173 167 165 154 153 158 153 133 129 133 125
306 309 306 301 299 290 276 269 259 269 284 269 254 276 282 262 216 207 214 213 216 183 190 186 187 182 179 169 178 183 178 171 167 166 158 158 168 139 134 133 123 107 106
297 301 300 294 288 288 281 270 257 260 265 292 238 266 280 270 210 205 207 205 200 180 179 186 173 166 179 192 184 178 169 170 165 163 160 160 143 143 143 137 130 116 100
298 297 297 295 289 285 273 268 255 248 247 257 244 246 267 270 208 212 200 195 177 169 161 158 156 161 160 163 165 169 166 166 165 167 162 154 147 147 143 136 122 109 93
296 297 300 302 300 288 270 260 251 237 241 239 243 232 256 258 208 199 183 207 178 173 173 176 171 172 171 178 174 172 163 160 160 155 147 147 141 139 140 132 123 113 98
300 301 308 301 296 288 272 253 242 232 230 221 219 215 234 232 189 175 172 207 197 184 181 177 181 184 174 177 180 167 163 156 148 146 146 147 136 134 132 128 122 111 101
311 313 305 295 285 287 271 244 233 229 218 206 210 206 218 204 189 177 195 188 183 176 175 178 174 172 169 165 166 167 163 160 152 150 150 143 139 133 129 123 115 109 106
316 319 306 301 286 278 255 235 222 218 209 199 196 205 211 193 196 191 185 189 179 173 172 169 161 163 163 167 170 169 169 160 155 151 144 139 138 133 128 121 111 111 110
320 325 319 299 302 258 231 219 205 200 193 194 193 199 192 182 194 189 177 179 172 168 167 167 165 164 167 172 175 178 168 159 155 145 138 138 137 134 127 118 117 125 114
319 325 304 287 291 234 207 204 191 184 186 187 183 194 177 175 179 180 180 176 175 168 168 170 169 169 171 174 170 160 162 158 148 145 142 143 139 136 130 127 125 127 114
322 320 311 266 276 210 200 186 176 178 179 178 182 184 179 174 170 174 178 176 175 175 173 177 178 173 167 162 155 159 163 160 153 148 145 144 141 138 136 135 133 131 122
324 327 328 246 244 182 181 169 170 172 174 176 176 169 172 170 173 173 164 169 175 180 183 182 179 164 152 148 152 164 163 156 156 151 148 143 144 143 143 142 140 139 130